Location: Unspecified
(52.4292°N, 19.3359°E)
Time: 21:00:51
(UTC+02:00)

A-11 Canister half - Pass Details

Date: 21 May 2024
Orbit: 1524 x 1683 km, 47.3° (Epoch: 19 June)

Event Time Altitude Azimuth Distance (km) Brightness Sun altitude
Rises 01:33:20 0° 266° (W) 4,738 11.4 -16.4°
Reaches altitude 10° 01:36:23 10° 264° (W) 3,774 10.8 -16.3°
Maximum altitude 01:45:50 65° 185° (S) 1,743 9.0 -15.9°
Drops below altitude 10° 01:55:37 10° 107° (ESE) 3,896 11.1 -15.4°
Sets 01:58:50 0° 105° (ESE) 4,899 11.7 -15.3°
